Theta_e
326 328 321 315 309 309 311 313 317 322 327 325 325 330 333 334 334 335 334 333 332 329 328 327 327 329 329 328 325 320 315 312 312 312 315 319 322 328 333 335 335 335 334 333 332 329 325 320 312 309 310 310 311 312 313 313 313 313 314 317 318 320 322 324 327 328 329 329 330 329 325 320 319 318 315 311 312 314 315 316 316 317 318 318 317
326 326 319 314 309 309 311 313 313 317 323 321 323 332 335 335 335 335 334 334 333 330 328 326 325 325 325 323 319 315 311 311 311 310 310 311 312 317 323 327 330 332 331 328 326 324 320 315 312 311 310 311 311 313 314 315 316 317 318 319 321 322 323 325 326 327 328 328 328 328 323 318 318 320 318 314 311 313 314 312 310 311 312 312 311
326 324 318 313 309 309 310 313 312 313 318 320 327 334 335 335 336 335 334 335 334 330 326 322 322 322 321 317 313 311 311 311 311 311 311 311 311 312 314 317 321 325 325 322 321 319 315 311 311 311 310 310 311 313 315 316 317 318 320 321 322 324 325 326 326 326 327 327 327 325 322 321 321 321 320 317 313 312 313 313 311 309 309 309 307
326 321 317 312 309 309 311 312 310 312 318 326 334 335 335 336 336 335 334 334 331 328 323 317 318 320 318 313 311 313 313 312 312 312 312 312 312 311 311 312 313 316 317 316 317 315 312 311 311 310 310 310 312 314 315 316 318 319 321 321 323 325 325 326 326 327 327 326 326 325 325 325 324 322 320 317 315 312 311 313 312 311 310 308 307
324 320 315 311 308 309 311 312 311 317 327 334 336 335 336 336 336 335 334 334 329 323 318 314 314 315 315 312 314 316 316 315 313 313 313 313 313 312 311 311 312 314 315 314 314 312 310 310 310 310 311 312 313 313 314 315 317 320 320 320 322 325 326 327 327 327 327 327 326 326 326 325 324 323 320 316 315 313 310 311 311 310 308 307 308
322 318 314 309 308 310 314 318 321 329 334 336 336 336 337 336 336 335 334 334 328 321 315 313 312 311 311 314 317 318 317 317 316 315 314 313 312 311 311 312 313 313 315 314 313 312 312 311 313 318 317 315 316 314 313 313 314 316 317 318 321 324 326 327 328 328 327 327 326 326 325 324 322 320 319 317 316 315 312 310 309 308 307 308 310
321 317 312 308 308 313 322 328 332 335 336 336 336 337 337 336 336 335 334 332 327 319 314 313 313 313 311 312 316 316 316 316 315 314 313 313 312 312 311 312 312 311 315 317 317 315 314 315 317 320 318 315 315 313 312 313 313 313 314 316 319 322 324 325 326 326 326 326 325 325 323 320 319 318 317 315 315 315 313 310 308 308 308 309 310
320 315 310 308 310 318 328 331 334 335 335 336 336 336 336 336 335 334 333 330 324 316 315 315 315 319 318 313 313 314 314 313 312 312 312 312 312 311 311 312 312 310 313 318 320 318 316 320 322 320 318 314 312 312 314 314 313 313 314 315 317 318 320 321 322 322 323 324 324 322 321 319 318 316 316 315 315 313 314 311 309 311 309 311 314
318 314 310 308 311 322 330 331 333 334 335 335 335 335 335 335 334 332 330 326 318 312 315 316 317 322 320 313 311 314 314 312 311 311 310 310 311 312 312 312 313 311 313 318 320 320 318 321 322 320 319 315 314 314 313 313 313 313 314 315 316 317 318 319 320 320 321 322 321 320 319 318 316 316 318 318 316 313 314 312 312 313 309 312 317
317 312 309 308 310 320 329 331 332 333 334 334 334 334 334 333 331 329 327 320 313 313 315 312 317 322 317 312 314 316 315 312 310 310 312 312 313 313 313 312 311 311 313 317 320 320 320 319 319 318 318 315 315 315 313 313 313 313 314 315 316 317 318 319 320 319 319 319 318 317 315 315 314 317 320 319 318 314 312 314 312 312 313 318 319
315 311 309 309 309 315 325 329 330 333 333 333 333 332 333 331 329 326 322 315 311 316 318 311 317 322 318 318 317 314 312 311 311 312 316 317 315 312 311 311 311 310 310 315 320 320 320 320 319 317 315 313 313 314 313 313 313 313 314 315 315 316 317 318 318 317 316 316 315 314 313 314 312 314 316 317 318 314 312 314 312 313 318 321 320
314 310 309 309 308 310 317 321 326 331 332 332 331 331 330 329 328 323 317 313 311 314 317 315 318 320 319 322 317 310 310 310 311 311 314 315 314 312 310 310 310 311 310 314 321 320 320 320 317 313 313 313 312 313 313 313 313 314 314 315 315 315 316 315 315 315 315 315 314 313 313 312 310 313 316 315 316 313 314 317 314 315 315 316 318
313 310 310 309 308 308 310 315 321 327 330 331 330 329 326 325 325 317 313 312 310 310 312 317 319 318 321 324 317 310 309 309 310 310 311 311 311 312 311 312 311 312 311 314 319 320 319 317 314 312 312 312 312 312 312 313 313 313 314 314 314 314 315 314 315 315 316 315 314 313 312 311 309 313 317 316 315 312 315 316 314 314 309 313 316
313 310 310 309 309 308 308 311 316 320 324 327 326 327 322 318 318 313 311 310 309 308 310 316 316 315 320 321 314 310 309 309 310 311 311 311 312 313 313 313 313 313 313 313 316 317 315 314 313 312 312 312 312 313 313 313 313 313 313 314 314 314 314 314 315 316 315 314 313 313 313 312 309 312 316 314 312 310 312 311 311 313 308 311 313
313 312 311 310 309 308 308 309 312 314 318 320 320 325 322 313 312 311 310 309 308 309 309 313 314 313 316 316 313 310 308 309 310 310 311 313 314 314 314 314 314 314 314 313 314 314 313 312 312 312 313 313 314 314 314 314 314 314 314 315 315 315 315 315 315 316 315 314 313 314 313 313 312 314 316 312 310 310 311 311 312 314 312 312 312
315 315 314 312 310 309 309 308 309 311 313 316 316 321 320 311 311 310 310 309 309 310 309 310 311 313 315 314 312 309 308 309 309 311 312 314 314 314 315 315 315 315 314 314 313 313 313 313 313 314 314 315 315 315 315 316 316 316 316 316 316 316 316 316 316 316 315 315 315 315 315 314 313 315 313 312 315 316 315 314 313 313 312 313 313
317 317 317 315 312 310 309 310 309 310 311 314 315 315 314 312 311 310 309 309 309 310 309 309 309 311 313 310 309 309 308 309 310 313 314 314 314 315 316 316 316 315 315 314 314 314 314 315 315 316 316 317 317 316 317 317 317 317 317 317 317 317 317 317 317 317 316 316 316 316 316 314 314 314 312 314 318 318 316 315 314 312 310 313 313
318 318 318 317 315 313 310 310 310 310 310 311 312 312 312 313 311 310 309 309 309 309 309 309 309 309 310 309 309 308 308 310 312 314 314 315 316 317 317 317 317 316 316 315 315 316 316 317 317 317 317 317 317 316 317 317 317 317 318 318 318 318 318 318 317 317 317 317 317 317 317 316 316 316 316 318 318 317 316 315 315 314 312 313 314
318 319 319 319 317 315 312 310 310 310 310 309 310 311 313 313 310 310 310 309 309 309 309 309 309 309 309 309 308 308 309 312 314 315 315 316 317 318 318 318 318 317 317 317 317 317 318 318 318 318 317 317 317 317 318 318 318 318 319 319 319 319 318 319 318 319 319 318 319 318 318 318 318 318 319 319 318 318 317 315 315 316 315 314 314
318 319 319 320 319 317 314 311 310 310 310 309 309 311 312 311 310 310 310 310 309 309 309 309 309 308 308 308 308 309 311 314 315 315 315 317 318 318 319 319 318 318 318 318 318 318 318 318 318 318 318 319 319 319 319 319 319 319 319 319 319 319 319 319 319 319 320 319 320 320 319 319 319 319 320 319 319 319 317 316 316 317 317 316 314
320 319 320 320 320 319 317 312 310 310 310 310 310 311 311 311 312 312 311 311 310 310 309 309 309 309 308 308 309 310 313 315 316 316 316 317 318 318 319 319 319 319 319 319 318 319 319 319 319 319 319 319 320 320 320 319 319 320 320 320 320 320 320 320 320 320 320 320 320 320 320 320 320 320 320 320 320 319 317 316 318 317 317 317 316
322 319 319 320 320 320 319 315 313 311 311 312 312 313 314 315 315 314 313 312 312 311 310 310 309 308 308 308 309 312 315 316 316 317 317 317 318 318 319 319 319 319 319 319 319 319 319 319 320 320 320 320 320 320 320 320 319 320 320 320 320 320 320 320 320 320 320 320 320 320 320 320 320 320 321 321 320 320 318 317 318 318 317 317 317
325 321 319 319 320 320 320 318 316 314 314 315 316 317 318 318 318 317 316 314 314 313 312 310 310 309 309 309 311 313 315 316 317 317 317 318 318 318 319 319 319 319 319 319 319 320 319 320 320 320 320 320 319 319 319 319 319 319 319 319 319 320 320 320 321 321 321 321 321 320 320 320 320 320 320 321 321 320 320 318 319 319 318 317 317
326 323 320 319 319 319 320 320 318 317 317 317 319 320 320 321 321 321 320 319 318 317 315 313 312 312 311 312 313 314 315 316 317 317 318 318 318 319 319 319 319 319 319 319 319 320 320 320 320 319 319 319 319 319 319 319 319 319 319 319 319 319 320 320 320 320 321 321 321 321 320 320 319 320 320 320 320 321 320 320 319 319 319 319 318
327 326 322 320 320 319 320 320 320 319 319 319 320 320 321 321 321 322 322 322 321 321 319 317 315 315 314 314 314 315 315 316 317 317 318 318 318 318 319 319 319 319 319 319 319 319 319 319 319 319 319 319 319 318 318 318 318 319 318 319 319 319 319 319 320 320 320 321 321 322 321 320 320 320 320 320 321 321 321 320 320 320 320 320 320
328 327 324 322 320 319 319 319 320 320 320 321 320 321 321 322 322 323 323 323 323 322 322 321 320 320 319 317 317 317 316 316 317 317 317 317 318 318 318 318 318 319 319 319 319 319 319 319 319 319 319 319 318 318 318 318 318 319 319 318 319 319 320 320 320 320 320 320 321 321 322 321 320 320 320 320 321 321 321 321 321 321 322 322 321
327 327 327 325 322 321 320 319 320 320 320 321 321 321 321 322 322 323 323 323 323 323 323 324 323 323 322 321 321 320 319 319 318 318 318 317 318 318 318 318 318 319 318 319 319 318 319 319 319 319 319 318 318 318 318 318 319 320 320 319 319 320 321 321 321 320 320 320 321 321 321 322 321 321 321 321 321 321 321 322 321 322 323 323 323
325 325 327 327 325 323 321 320 319 319 320 320 321 321 321 322 322 322 323 323 323 323 324 324 324 324 324 324 323 323 322 322 321 320 319 320 320 319 319 320 320 320 319 320 320 320 319 319 319 319 319 318 318 318 318 319 320 321 321 321 321 322 322 322 322 322 322 321 321 321 321 321 321 321 321 321 321 321 321 322 322 322 322 322 323
324 324 325 326 326 325 323 322 319 319 319 320 320 321 321 321 321 321 322 322 322 322 322 323 323 324 324 324 324 324 324 323 323 323 322 322 322 321 322 322 322 321 322 322 321 322 321 321 321 321 321 321 321 321 321 322 323 323 324 323 324 324 324 323 323 323 323 323 322 322 322 322 322 321 321 321 321 321 321 322 322 322 322 322 322
324 324 325 324 325 326 325 324 321 320 320 321 320 321 321 321 321 321 321 321 321 321 322 322 322 322 323 324 324 324 325 324 324 324 324 324 324 324 324 324 324 323 324 324 324 324 324 324 324 324 324 324 324 324 324 325 324 324 324 324 325 325 325 324 324 323 323 322 322 322 322 322 322 321 321 321 321 321 321 321 322 322 322 322 322
324 325 325 325 326 326 326 325 323 321 320 321 321 322 322 321 321 321 321 321 321 321 321 321 322 322 322 323 323 324 324 324 324 324 324 325 325 325 325 325 325 325 326 325 325 325 326 326 326 326 326 325 325 324 324 324 323 323 322 323 323 324 324 324 324 322 322 322 322 322 322 322 322 322 321 321 321 321 322 322 322 322 321 321 321
324 325 326 326 326 326 326 326 324 322 321 321 321 322 322 322 322 322 322 321 322 322 322 322 322 322 322 322 323 323 324 324 324 324 324 325 324 325 325 325 326 326 326 326 326 326 326 327 326 326 326 325 324 323 323 322 321 321 320 321 322 323 323 323 323 322 322 322 322 323 323 322 323 323 322 322 322 322 322 322 323 322 321 321 321
323 324 325 326 327 326 326 326 325 323 321 321 321 321 322 322 322 322 322 322 322 323 323 323 322 323 322 322 323 323 323 323 324 324 324 324 324 324 325 325 325 326 326 326 326 327 327 326 326 326 325 324 323 323 322 320 320 319 319 321 322 322 322 322 322 321 322 322 323 324 322 320 321 322 322 323 322 322 322 322 322 322 322 322 322
322 323 324 325 326 327 326 326 325 324 323 322 322 322 322 322 322 323 323 322 322 322 322 323 323 323 323 323 323 323 323 323 323 324 324 324 324 324 324 325 325 325 325 326 326 327 327 326 325 324 323 322 321 321 321 321 322 321 320 321 321 321 322 322 322 321 320 320 322 323 320 318 319 320 321 321 321 321 321 321 321 321 322 322 322
322 322 323 324 325 326 327 326 326 325 324 323 322 322 322 322 322 323 323 323 323 322 322 323 323 324 324 324 324 324 324 323 323 323 323 323 323 323 323 323 324 324 325 325 325 326 325 325 324 323 322 321 321 321 321 323 324 322 320 321 321 322 322 322 322 322 320 318 319 321 320 319 320 320 321 320 320 320 320 320 320 320 320 321 321
321 321 322 323 324 325 326 326 325 325 324 324 323 323 322 323 323 323 324 324 323 323 322 323 323 324 325 324 324 324 324 323 323 323 323 323 323 322 321 322 322 322 323 324 324 324 324 323 322 322 321 321 321 320 321 323 323 321 320 321 322 323 323 323 323 320 318 317 317 319 320 321 321 321 321 320 320 320 320 320 320 320 319 320 321
321 321 322 323 324 324 325 326 325 325 324 324 324 323 323 323 323 324 324 324 323 323 322 323 323 324 324 324 324 323 323 323 323 323 324 323 323 323 322 322 322 322 323 323 323 323 323 323 322 322 322 321 321 319 319 320 320 319 320 321 323 324 323 322 320 317 316 316 317 319 320 321 321 319 319 318 319 319 320 320 320 320 319 320 320
320 321 322 322 323 324 324 325 325 325 324 324 324 324 323 323 324 323 323 323 323 322 323 323 323 324 324 323 323 323 323 323 324 325 324 323 323 322 322 321 323 323 321 321 321 321 321 321 321 322 322 321 320 319 319 319 319 319 320 321 321 322 321 320 318 317 316 317 318 318 319 319 319 318 318 318 318 319 320 320 320 319 319 319 319
318 319 320 321 322 323 324 324 324 324 324 324 324 324 324 324 324 324 323 323 322 323 323 323 323 324 323 323 323 322 323 324 325 325 324 323 322 320 319 320 322 322 321 321 321 320 320 319 319 319 319 319 320 321 320 319 319 318 319 321 321 321 321 319 318 318 318 318 319 318 316 317 318 318 318 318 317 317 317 317 317 317 317 317 316
316 317 318 319 320 321 323 323 323 324 324 324 324 324 325 324 324 324 323 322 322 323 323 323 323 323 322 322 322 323 325 326 326 326 325 324 323 322 321 322 323 322 322 323 323 322 321 321 319 318 319 320 322 323 321 320 320 320 321 323 323 323 320 318 317 318 319 319 319 318 316 316 316 316 316 316 315 314 314 313 313 313 313 313 313
315 316 316 317 318 319 320 321 322 323 323 323 323 323 323 323 323 323 323 323 322 323 322 322 321 322 322 322 323 326 327 327 327 326 326 325 324 324 324 324 324 324 324 323 323 324 324 323 321 319 320 322 324 323 320 321 322 322 324 323 321 320 317 316 317 318 318 317 318 318 316 315 314 313 313 312 311 311 311 311 310 310 309 309 309
314 314 314 314 315 316 317 319 320 321 321 321 322 321 321 322 322 322 322 323 322 322 321 320 321 322 322 322 325 327 327 327 327 326 326 326 326 325 325 325 324 324 325 324 323 325 326 324 321 320 320 320 322 322 321 323 324 324 324 321 318 317 314 316 317 316 316 316 316 316 315 313 312 311 311 310 309 308 307 306 305 304 304 304 304
314 313 314 313 314 314 315 317 318 319 318 319 320 319 319 321 323 323 323 323 322 322 321 322 322 322 322 323 324 326 326 326 326 326 325 325 325 325 324 324 324 324 324 322 322 324 326 324 321 322 322 321 320 320 322 325 325 324 323 319 318 317 316 316 316 314 315 314 314 313 312 312 310 309 307 306 305 303 302 301 301 300 300 300 300
313 313 314 313 313 313 314 315 316 316 317 317 317 318 320 323 325 326 326 326 324 323 323 323 323 322 323 324 325 324 324 324 325 325 325 325 325 324 324 324 322 323 321 321 322 322 322 322 321 321 323 324 322 321 323 325 325 323 321 320 320 319 317 316 314 312 313 313 312 311 311 309 307 305 303 302 302 301 300 300 300 300 299 299 299
314 314 313 313 313 313 313 313 314 315 315 316 317 318 322 325 327 328 328 327 325 323 323 322 322 322 322 323 324 323 321 323 323 322 324 323 322 323 327 326 322 322 322 323 326 324 323 324 324 322 323 324 324 324 325 325 324 321 320 321 321 318 317 316 315 313 312 311 310 309 307 306 304 302 301 301 301 300 300 300 300 300 299 299 299
314 314 313 313 313 313 313 313 313 314 314 315 316 319 322 325 328 328 327 326 323 321 319 320 320 321 321 321 321 321 320 320 319 322 325 322 321 324 325 324 323 323 323 323 326 326 325 326 326 323 321 322 324 325 325 325 323 319 318 321 321 319 318 317 315 314 312 309 307 305 303 303 302 301 301 301 301 301 300 300 300 300 299 298 298
313 313 313 313 313 313 313 313 313 313 313 314 315 318 322 325 327 327 326 325 322 319 318 319 319 319 321 320 320 320 320 320 318 323 328 324 324 327 325 326 329 326 323 324 326 326 327 328 325 320 319 322 324 324 324 323 320 317 317 320 320 319 317 315 314 313 312 308 303 301 300 300 300 300 300 301 301 302 302 301 300 299 298 298 297
314 314 313 313 313 313 313 313 313 313 313 314 314 316 319 322 323 324 325 325 322 321 320 321 321 320 322 321 321 320 319 321 318 320 327 325 324 327 327 327 328 325 324 327 328 327 328 326 322 318 320 323 324 323 321 318 315 314 315 316 315 314 312 311 311 311 308 304 300 299 299 299 300 300 300 300 300 301 301 300 299 298 298 297 297
314 314 313 314 313 313 313 313 313 313 314 314 315 316 317 319 321 324 325 324 323 324 324 324 323 322 322 322 322 321 319 321 320 319 324 323 322 327 327 325 326 326 325 326 325 325 325 322 321 322 321 320 319 317 315 314 312 312 312 312 311 310 309 308 306 303 301 299 297 298 298 298 301 302 301 299 299 299 298 298 298 298 297 297 297
314 314 314 313 313 313 313 313 313 314 314 314 315 315 316 318 320 322 323 323 323 325 326 326 325 323 323 322 322 322 320 321 321 320 321 319 318 321 321 323 326 326 324 322 320 319 319 318 319 320 317 315 316 314 312 312 312 311 311 310 308 306 304 302 300 298 297 297 297 298 298 298 299 302 301 299 298 297 297 297 297 297 297 296 296
314 314 314 314 314 313 313 313 313 313 313 314 314 315 316 317 319 319 321 321 322 324 325 326 326 324 323 322 322 322 321 321 321 322 322 319 317 317 317 320 322 321 319 318 317 316 316 315 316 316 314 313 313 311 311 312 310 309 308 306 303 301 299 298 297 297 297 297 297 297 298 298 298 300 299 298 297 297 297 297 296 296 296 296 296
Wind_Speed
10 6 2 3 5 7 7 10 10 10 10 9 8 8 9 9 9 9 8 6 5 6 6 6 6 5 4 4 4 4 5 8 10 11 11 10 11 12 12 12 12 12 10 10 8 6 7 8 10 11 11 11 11 11 11 11 11 11 11 12 12 12 12 11 11 12 12 13 13 12 13 13 15 18 19 17 13 10 8 7 6 6 5 6 6
9 6 3 3 5 7 8 9 10 11 10 8 8 9 9 9 9 8 7 6 5 6 7 6 5 4 3 3 4 5 7 9 10 11 10 9 9 9 9 9 10 10 8 7 7 7 8 9 10 12 11 10 10 11 12 13 13 13 13 12 12 12 11 10 10 10 10 10 10 10 10 10 12 16 18 18 16 11 8 7 7 6 6 6 6
9 6 4 4 5 7 7 8 10 11 11 10 10 10 9 8 8 7 7 7 6 7 7 6 5 5 5 5 6 8 8 10 11 11 10 9 8 7 7 7 7 7 6 4 5 6 7 9 10 11 10 10 10 11 12 13 13 13 13 12 11 11 10 10 9 9 9 9 9 9 9 10 10 13 17 17 17 15 10 7 7 7 7 7 6
8 6 4 4 6 6 6 10 13 13 13 13 11 10 9 8 7 6 6 6 6 7 6 5 6 7 8 8 8 8 9 11 11 10 9 8 8 7 7 7 6 6 5 5 5 5 7 9 10 10 10 10 11 11 12 13 13 13 12 11 11 10 10 10 9 9 9 9 8 9 10 11 12 13 16 16 16 16 12 8 6 6 6 7 7
8 5 4 4 6 6 9 14 16 15 14 13 11 10 9 8 7 6 5 4 5 6 6 5 6 7 8 9 10 10 10 11 11 10 10 9 9 9 8 8 8 8 8 9 7 6 8 9 10 11 11 12 12 13 13 13 13 12 11 10 10 10 10 9 9 9 9 9 9 10 11 13 14 15 16 16 15 16 14 9 6 6 6 7 7
7 5 4 5 7 8 13 17 16 15 13 12 11 10 9 8 7 6 5 3 4 6 5 5 6 7 8 10 11 10 11 11 11 10 10 10 10 10 9 10 10 11 11 10 9 8 10 11 12 12 12 13 13 13 13 13 12 12 11 11 11 10 10 9 8 8 8 9 9 10 11 12 13 14 14 14 14 14 14 10 7 6 7 8 9
7 4 5 7 9 12 16 17 15 13 11 11 10 10 9 8 7 6 5 3 3 4 4 5 7 8 9 10 10 10 11 10 10 10 10 10 9 9 10 10 11 11 11 10 10 10 11 12 13 13 12 12 12 12 13 13 13 13 12 12 11 10 9 8 7 7 7 7 8 9 10 11 12 12 12 12 11 11 12 10 8 7 7 8 9
7 5 5 8 11 15 16 15 13 12 11 11 10 10 9 8 7 6 5 2 2 3 3 5 7 10 10 10 10 10 10 9 10 9 10 9 9 10 10 11 11 11 11 10 11 11 12 13 13 13 12 12 12 12 13 13 14 14 14 13 12 11 10 8 8 7 7 6 8 9 10 11 12 12 12 11 10 9 9 9 8 8 8 9 10
7 6 6 9 13 15 16 15 12 12 12 11 10 9 9 9 7 6 4 1 1 2 4 6 8 9 9 10 10 10 9 9 10 9 9 9 10 10 10 11 10 10 11 10 11 11 12 13 12 12 12 12 12 12 13 14 14 14 14 14 13 12 10 10 9 8 8 7 9 10 11 12 13 14 13 12 11 9 7 8 8 9 10 10 10
7 6 7 9 13 14 17 16 14 12 11 11 10 9 9 8 7 5 4 2 1 3 4 5 7 7 9 11 11 10 10 10 9 9 9 9 10 11 11 11 10 11 11 10 11 11 12 12 11 11 11 12 12 13 14 14 14 14 14 14 13 12 11 10 10 9 9 10 11 11 12 13 13 13 12 12 12 10 8 9 9 10 12 10 9
7 7 7 9 11 12 16 18 16 14 12 11 9 9 9 7 6 5 4 3 2 3 4 6 6 7 9 10 10 10 10 10 9 10 10 10 11 11 11 11 10 10 10 10 10 11 11 11 11 11 11 11 12 13 14 14 14 15 14 14 13 12 12 11 10 10 11 12 13 13 14 13 12 11 10 10 10 10 10 10 9 10 10 7 9
8 7 7 7 9 11 14 15 16 16 14 12 9 8 8 7 6 6 6 3 3 3 4 6 7 7 9 9 10 10 9 9 8 10 11 11 11 11 11 10 10 10 10 9 9 10 10 10 11 11 11 11 13 14 14 15 15 15 15 14 14 13 13 12 12 13 13 14 14 14 15 13 12 11 11 11 9 9 10 11 10 10 10 6 8
7 8 7 6 7 8 10 11 12 15 14 13 11 8 7 8 8 7 6 4 3 3 3 6 7 7 9 8 8 9 9 8 8 9 11 11 11 11 11 11 10 10 10 9 9 10 10 10 11 12 12 12 13 14 14 15 15 15 15 15 14 14 14 14 14 15 15 15 15 15 16 14 12 11 11 12 11 10 10 10 10 10 10 8 8
7 8 7 6 7 7 9 10 10 11 12 12 11 8 6 7 8 6 5 4 4 3 3 5 6 7 8 7 8 9 9 8 8 10 10 11 11 11 11 11 11 11 10 10 10 10 10 10 11 12 12 13 14 14 15 15 15 15 15 15 15 15 15 15 15 15 16 16 16 17 17 15 12 11 10 11 12 11 11 11 12 11 10 10 8
7 7 8 7 7 7 8 9 10 10 11 11 9 8 7 6 6 5 4 4 5 4 4 5 6 7 8 7 8 10 9 9 9 10 10 11 11 11 12 12 11 11 11 10 10 10 10 11 11 12 12 13 14 14 15 15 16 16 16 16 16 16 15 15 15 15 16 16 17 18 18 16 12 10 11 12 11 10 10 11 12 11 11 11 9
8 7 7 7 6 6 7 7 8 10 11 11 11 10 6 5 5 5 4 5 5 5 5 6 7 8 8 8 9 10 10 9 9 10 10 10 11 11 12 12 11 11 11 11 10 10 11 11 12 12 12 13 14 14 15 15 16 16 16 16 16 16 16 16 15 16 16 16 17 17 17 16 12 10 12 13 10 9 10 10 11 11 11 10 9
9 8 6 6 6 6 6 5 6 7 11 13 12 12 7 4 3 4 4 5 5 5 6 7 8 9 8 9 9 10 9 9 9 10 10 10 11 11 11 11 11 11 11 11 11 11 11 12 12 12 12 13 14 14 15 15 15 16 16 16 16 16 16 16 16 16 16 16 17 17 17 15 13 12 13 12 9 9 9 10 11 11 11 10 10
10 9 7 6 6 5 5 5 4 4 7 11 12 11 7 3 2 4 5 4 6 6 7 8 8 9 9 9 9 9 9 9 9 9 10 10 10 10 11 11 11 11 11 11 11 11 12 12 12 12 12 13 13 14 15 15 15 15 15 15 16 16 16 16 16 16 16 16 17 17 17 16 14 13 11 9 9 10 10 10 10 11 11 10 10
12 10 9 7 6 5 5 5 4 4 4 8 9 9 7 4 4 5 5 5 6 7 8 8 8 8 9 9 9 9 8 8 8 9 9 10 10 10 10 10 10 11 11 11 11 11 12 12 12 11 12 12 13 14 14 14 14 15 15 15 15 15 15 15 15 15 16 16 17 17 17 16 15 12 9 10 11 10 10 10 9 11 10 8 9
13 12 10 8 7 6 6 5 6 6 5 7 8 8 7 6 5 5 5 6 6 7 7 7 8 8 8 8 8 8 8 7 8 8 9 9 9 9 9 9 10 10 10 10 10 11 11 11 11 11 11 11 12 12 13 13 14 14 14 14 14 14 14 14 15 15 15 16 16 16 16 16 15 11 9 11 10 8 10 11 11 14 12 8 8
16 14 12 10 9 7 6 7 7 7 7 8 8 8 8 7 7 6 6 6 6 7 7 7 7 7 8 8 8 8 7 7 7 8 8 8 7 8 8 8 8 9 9 9 10 10 10 10 10 10 10 10 11 11 12 12 13 13 13 13 13 14 14 14 14 15 15 15 15 15 15 15 14 11 9 10 10 10 11 13 15 19 16 11 8
19 17 15 12 11 9 8 7 8 8 8 9 9 9 8 8 8 7 7 7 7 7 7 7 7 7 7 7 7 7 7 7 7 7 7 7 6 7 7 7 7 7 8 8 8 8 8 8 8 8 8 9 10 10 11 12 12 12 12 12 13 13 13 13 14 14 14 15 15 15 15 15 15 13 10 10 13 15 15 16 18 21 18 11 9
20 19 17 15 13 11 9 8 8 8 9 10 9 9 9 8 8 8 7 7 7 7 7 7 7 7 6 6 6 6 6 6 6 6 6 6 6 5 6 6 6 6 6 6 6 6 7 7 7 7 7 8 9 10 10 11 12 12 12 12 12 12 12 12 12 13 13 14 15 15 15 15 15 14 12 11 12 14 18 19 19 21 17 11 12
19 19 17 16 15 13 12 10 10 9 9 10 10 9 8 8 8 8 7 7 6 6 6 6 6 6 5 5 4 4 4 5 5 5 5 5 5 4 4 4 4 4 4 5 5 5 5 5 6 6 7 8 8 9 10 10 11 12 12 13 13 12 12 11 11 12 12 13 13 14 15 15 14 14 13 12 10 11 17 20 20 21 18 13 14
19 19 18 17 16 15 14 13 12 10 10 9 9 9 8 8 7 7 7 6 5 5 5 5 5 5 4 4 3 3 3 4 4 4 4 4 4 3 3 2 2 2 3 3 3 3 4 4 5 6 7 8 8 9 9 10 10 11 12 12 13 13 13 12 12 11 11 12 12 13 14 14 14 14 14 14 11 10 13 17 19 19 19 17 14
21 20 19 18 17 16 16 15 14 12 11 11 10 10 9 8 7 6 6 5 5 4 4 4 4 4 4 4 3 2 2 2 2 3 3 3 2 2 2 1 1 1 2 2 3 3 4 5 5 6 7 8 8 9 9 9 10 11 12 12 13 13 14 14 13 13 13 12 12 13 13 14 14 14 14 15 14 12 13 15 18 18 17 18 16
22 20 19 19 18 18 17 17 16 15 13 13 12 11 11 10 9 8 6 6 5 4 4 4 4 3 3 3 3 3 3 3 2 2 2 2 2 1 1 1 2 2 3 3 4 4 5 5 6 6 6 7 8 8 9 9 10 10 11 12 12 13 14 14 14 14 14 14 13 13 13 14 15 15 15 15 15 15 14 14 16 17 17 18 18
22 21 20 20 19 19 19 18 17 16 15 15 14 13 12 12 11 10 9 8 7 6 5 5 5 4 4 4 4 4 4 4 4 4 4 3 3 3 2 3 3 4 5 5 5 5 6 6 7 7 7 8 8 9 10 10 11 11 11 11 12 13 14 14 15 15 16 16 15 15 15 15 15 16 16 16 17 17 16 16 16 17 18 19 19
24 22 21 20 20 19 19 19 18 17 17 17 16 15 14 13 13 12 11 10 9 8 8 8 7 7 6 6 6 6 5 5 5 5 5 5 5 4 4 5 5 5 6 7 7 7 7 8 8 8 9 9 10 11 11 11 12 13 13 13 13 14 14 15 16 16 16 17 17 17 17 17 17 17 17 17 17 18 18 18 18 19 19 20 20
25 23 22 21 20 20 20 19 18 18 18 18 17 16 15 15 14 13 12 12 10 10 10 10 9 8 8 8 8 8 8 8 8 7 7 7 7 6 7 7 7 7 7 8 9 9 10 10 10 10 11 11 11 13 13 13 13 14 14 15 15 16 16 16 17 17 17 17 17 17 17 18 18 18 18 18 18 19 19 19 19 19 21 21 22
25 24 24 21 21 21 21 20 19 19 19 18 18 17 17 15 14 14 14 13 12 13 12 11 11 10 9 10 10 10 10 10 10 10 9 10 10 9 9 9 9 9 10 10 11 11 12 12 12 12 13 13 13 15 15 16 16 16 16 16 16 17 17 18 17 17 17 17 17 17 18 18 18 18 19 19 19 20 20 20 20 20 21 23 23
27 26 24 22 22 22 22 21 20 20 20 19 18 18 17 16 16 15 14 14 14 14 14 13 12 11 12 12 11 11 11 11 12 12 12 12 12 12 12 11 11 12 12 13 13 14 14 14 14 14 14 15 16 17 18 19 18 19 20 18 16 16 16 17 17 17 17 18 18 18 18 19 21 21 21 20 20 21 21 22 23 23 22 23 24
26 25 23 23 23 22 22 22 22 22 21 20 19 18 17 17 17 16 15 15 16 15 15 14 13 13 13 12 12 12 12 13 13 14 14 14 15 15 14 14 13 14 15 15 16 16 16 16 15 15 16 16 16 17 19 21 20 21 20 16 14 14 15 16 16 18 19 20 20 19 19 21 22 23 23 23 23 23 23 24 25 25 25 24 25
25 24 24 24 24 23 23 24 24 24 22 21 20 19 19 18 18 17 17 18 18 17 16 14 14 14 14 13 13 12 12 13 14 15 16 16 17 17 16 16 16 16 17 17 18 18 18 18 18 18 18 18 18 17 19 21 21 21 17 13 13 14 15 16 18 20 22 22 22 21 21 21 21 23 24 25 25 25 24 24 25 26 26 26 25
27 26 25 24 24 24 24 25 26 26 25 23 22 21 20 20 19 19 19 19 19 19 17 16 15 15 15 14 13 13 13 13 14 16 17 17 17 18 18 18 18 19 19 19 20 20 20 21 19 18 20 19 17 16 17 19 21 20 15 13 14 15 16 18 21 23 24 23 21 21 20 20 21 22 22 22 22 22 22 22 23 24 25 25 24
29 27 27 26 26 25 25 26 26 27 27 26 24 22 22 21 21 21 21 21 21 20 19 17 16 16 17 16 15 14 14 14 15 16 17 17 18 18 18 18 19 19 18 19 19 19 19 19 17 17 20 18 14 14 15 18 20 18 14 14 15 17 18 20 24 26 25 22 19 19 19 19 20 20 20 20 20 19 19 20 21 22 23 23 23
30 29 28 28 28 27 27 27 27 28 28 27 26 25 24 23 22 22 22 22 22 22 19 18 18 18 18 17 16 15 15 15 15 16 17 17 17 18 18 17 18 18 18 18 17 17 17 18 17 17 19 18 15 16 16 16 16 15 14 15 17 18 19 21 24 24 20 18 17 17 17 17 18 19 19 19 19 19 18 19 21 22 23 23 23
30 30 30 29 29 28 28 27 27 27 28 28 27 26 25 24 23 22 22 23 23 21 20 20 20 19 19 19 17 17 16 16 16 17 18 18 17 17 17 16 17 18 19 18 17 17 17 18 18 18 19 19 16 15 14 14 14 16 17 16 17 17 18 20 21 19 16 15 15 16 16 15 16 18 18 16 16 18 18 19 21 23 23 23 25
29 30 31 31 30 30 29 29 29 28 28 28 27 27 26 25 24 24 24 24 24 22 21 22 21 21 21 19 19 18 18 17 17 18 19 18 16 15 14 14 14 14 16 17 16 16 14 14 16 16 15 13 11 12 13 14 16 17 16 16 16 17 18 19 18 15 13 14 16 17 15 14 17 18 18 17 17 19 20 22 23 24 25 26 28
28 29 30 31 32 31 31 31 30 30 29 29 28 28 28 27 26 26 26 26 25 24 23 22 22 22 21 20 20 19 18 18 19 19 19 18 16 14 13 12 13 13 14 15 15 14 12 13 13 11 9 9 10 11 12 14 15 16 16 17 17 19 19 17 15 12 12 16 19 17 16 17 19 21 20 20 20 21 21 22 23 24 25 25 25
29 30 30 31 31 32 32 32 31 31 30 30 29 29 29 28 28 28 28 27 25 24 23 23 22 22 21 21 20 20 19 19 20 20 20 20 19 16 15 15 15 15 15 13 12 13 13 13 14 11 9 11 13 10 10 12 16 18 19 21 20 20 19 15 13 12 15 20 19 17 18 20 22 22 22 22 21 21 20 20 20 20 21 22 22
30 30 30 30 30 31 32 32 32 32 32 31 30 29 29 27 27 27 26 25 24 23 22 21 21 21 21 21 22 21 21 21 21 21 20 20 20 19 18 16 16 16 16 14 11 13 14 13 15 12 9 11 10 7 9 14 18 19 21 24 24 22 19 16 14 16 21 21 19 19 21 22 23 23 22 21 21 21 20 20 21 21 21 22 22
30 31 31 30 30 31 32 32 32 33 32 31 31 30 28 26 25 24 24 23 23 21 20 20 21 21 22 22 22 22 22 23 22 21 20 20 20 20 19 17 16 15 16 15 12 13 14 14 14 13 10 9 8 8 10 15 18 17 18 22 25 25 22 18 19 23 24 22 20 22 23 22 21 21 21 21 22 22 21 22 22 22 23 24 23
31 32 32 32 32 32 32 32 32 32 32 31 31 30 27 26 25 24 23 23 22 21 21 22 22 23 23 23 22 22 21 21 21 20 19 20 21 18 17 17 16 14 12 10 9 10 11 13 12 11 12 11 9 12 14 14 16 15 16 18 20 21 18 21 27 26 22 21 21 21 21 20 20 20 21 21 22 22 22 23 23 24 25 25 25
31 32 32 32 33 32 31 31 31 32 32 32 31 30 29 27 27 26 26 26 25 24 25 25 25 24 24 23 22 20 19 20 21 19 18 20 19 15 15 17 15 13 11 8 10 12 11 13 13 11 14 14 13 16 16 13 15 17 16 15 13 13 15 24 29 24 20 20 18 17 17 18 20 21 22 22 22 23 25 25 25 26 27 26 27
29 29 30 31 32 32 31 31 32 32 31 31 31 30 31 30 30 30 29 29 28 27 27 26 26 24 24 22 19 18 18 20 19 17 18 18 15 13 15 16 15 13 11 10 11 13 14 16 16 14 14 14 14 17 17 15 18 18 16 14 13 14 19 24 24 23 24 22 18 15 14 15 18 20 21 22 23 25 27 27 27 28 28 28 28
26 25 27 29 31 31 31 32 33 32 31 31 31 32 32 32 31 31 30 30 29 27 26 25 25 24 23 20 18 17 18 19 19 17 20 19 14 14 14 14 16 15 13 13 14 15 17 17 15 14 15 15 15 16 17 18 18 16 15 15 16 17 20 21 20 23 26 25 22 18 17 18 20 21 22 22 24 27 28 28 29 29 28 29 29
25 25 26 26 28 29 31 32 32 32 31 31 32 32 33 32 32 32 31 31 30 28 26 26 25 23 22 20 19 19 18 19 21 19 19 20 16 16 17 16 18 19 17 18 18 17 18 18 17 16 16 15 16 16 18 18 16 14 14 15 15 16 16 16 18 19 22 26 27 24 24 26 25 25 27 26 27 28 29 29 29 29 30 31 31
25 25 26 25 25 27 29 31 32 32 32 32 33 32 32 32 32 33 33 32 30 29 28 28 27 24 22 21 20 21 20 20 22 20 20 20 18 17 20 19 18 20 20 20 20 20 21 20 17 16 15 15 16 17 16 14 12 12 12 12 11 11 11 12 13 15 17 22 27 30 31 32 31 29 29 30 30 30 29 29 28 29 32 33 35
27 25 25 26 26 25 27 30 32 33 32 32 32 32 33 33 34 35 34 33 31 31 31 30 29 27 24 23 22 22 22 21 21 21 21 20 19 20 21 20 20 23 22 21 21 21 21 19 17 16 15 15 15 14 11 10 9 7 6 6 6 7 8 10 11 15 18 21 26 31 33 35 37 35 32 32 32 31 31 30 30 32 34 36 37
28 27 26 26 26 25 26 28 30 32 32 32 32 32 33 33 34 35 34 34 33 32 32 31 30 28 26 25 24 24 24 23 22 22 22 21 20 19 18 18 21 22 20 18 17 16 16 16 16 15 13 12 11 9 6 5 4 3 4 4 5 7 8 10 12 15 18 21 26 30 32 33 36 36 35 35 33 33 32 32 33 36 37 38 39
Wind_Direction
161 138 113 77 107 137 152 169 177 169 152 138 127 122 125 122 119 118 114 108 101 97 91 87 87 84 80 74 74 83 96 109 117 127 131 130 121 115 109 102 99 95 96 92 82 72 53 43 49 63 65 64 65 66 66 65 67 68 69 70 71 74 77 79 81 80 78 74 71 67 64 64 53 43 39 37 39 43 46 50 52 52 62 60 50
151 138 122 90 111 137 153 157 161 166 161 150 137 132 129 126 124 120 107 92 83 88 87 80 83 91 96 92 101 107 111 116 116 120 123 127 124 124 120 111 107 97 96 91 73 65 50 44 58 66 66 67 70 72 71 69 71 71 71 70 72 76 78 79 77 77 74 67 65 61 56 54 45 39 33 32 35 36 38 40 44 45 50 49 39
150 140 126 100 116 139 149 138 140 148 150 148 140 135 128 127 125 117 105 93 85 86 80 73 83 96 104 112 118 117 119 121 117 118 119 123 122 124 125 120 120 104 96 94 73 59 49 53 63 65 67 72 75 76 74 71 69 69 69 70 74 79 80 78 75 72 68 61 55 45 41 40 39 34 25 25 28 29 29 28 35 37 40 36 27
153 145 131 113 124 139 136 124 130 135 138 139 137 134 127 126 122 114 110 101 94 83 68 67 91 98 99 112 117 111 114 122 120 118 116 116 113 112 111 107 109 100 89 88 84 63 56 66 68 67 68 72 76 76 74 70 66 64 65 68 74 79 80 76 73 68 62 56 47 37 33 27 24 21 16 17 16 19 24 23 23 25 25 20 14
156 152 129 119 131 134 130 126 129 133 134 135 135 134 128 127 123 121 115 105 92 71 57 75 103 104 101 110 112 106 106 109 109 108 106 101 98 97 95 93 93 87 80 80 86 72 65 70 68 67 66 69 72 73 72 69 68 66 62 67 72 75 76 74 71 64 56 47 37 29 26 19 14 9 7 11 8 9 21 32 34 28 20 12 5
156 149 127 122 130 133 132 129 129 130 132 135 136 134 131 131 133 136 127 108 83 60 59 93 113 115 111 111 110 108 102 97 97 98 97 93 90 90 87 86 86 84 82 81 81 71 66 69 72 71 69 69 70 68 66 63 65 66 64 67 70 70 70 69 64 55 44 34 26 21 17 13 8 5 3 4 7 5 14 32 44 29 16 13 12
156 139 126 125 133 140 136 130 129 132 136 139 138 138 136 138 146 152 143 117 69 47 64 101 115 116 116 117 113 105 101 99 96 91 90 91 90 89 85 83 82 83 84 82 76 70 68 69 73 75 73 71 69 64 59 58 57 57 58 63 67 67 64 60 51 38 27 18 15 14 8 6 5 4 358 352 357 358 6 22 35 30 25 23 22
150 138 131 131 140 146 140 132 134 139 143 144 144 147 147 152 160 157 148 129 52 42 85 106 111 112 114 120 114 102 98 98 96 90 87 88 88 87 86 85 83 85 87 82 76 73 73 72 72 74 73 68 66 62 59 56 52 51 54 57 60 61 59 51 39 26 17 11 10 8 2 2 0 360 359 358 1 7 12 18 31 33 36 36 26
147 145 139 139 147 150 144 137 141 147 147 149 152 157 161 170 172 159 154 149 84 90 119 111 109 114 115 120 116 105 98 91 92 92 90 86 86 88 88 90 89 90 89 82 75 73 76 78 76 76 72 65 61 61 59 55 51 50 51 52 53 53 53 47 39 29 20 14 8 4 1 0 1 8 15 20 23 29 30 25 29 29 35 41 30
149 150 146 147 155 157 152 146 146 150 151 154 160 168 174 180 177 165 164 159 122 124 134 126 111 108 110 117 116 110 102 93 90 90 91 90 89 91 91 92 91 91 89 82 75 72 76 78 77 76 70 62 57 55 54 53 50 49 48 48 47 45 44 41 34 26 20 15 11 7 7 5 11 24 28 27 32 38 40 24 16 25 35 39 28
151 153 150 154 161 164 162 159 154 151 155 160 165 179 187 186 180 174 167 155 140 125 123 137 123 101 102 109 111 110 103 93 90 89 88 87 86 88 91 91 90 91 89 85 78 75 77 77 76 73 66 57 52 50 48 47 46 45 44 43 41 40 37 34 27 23 22 20 19 16 15 14 21 30 26 29 34 33 32 23 20 34 44 38 23
151 150 149 152 163 170 171 169 162 157 157 161 168 184 195 193 192 184 168 162 160 142 111 120 117 100 97 99 108 109 100 92 88 89 87 85 84 85 89 89 89 89 88 86 80 79 79 76 72 67 60 53 49 47 46 43 43 42 41 40 37 35 32 30 27 26 25 25 25 22 20 23 33 34 29 34 32 29 28 28 34 34 38 34 19
147 142 142 139 151 169 175 175 169 166 163 168 177 186 196 192 196 183 162 169 161 151 112 105 108 102 96 98 108 109 102 93 89 90 89 89 88 86 87 87 87 84 86 84 77 76 75 71 64 61 56 50 48 45 44 42 41 41 40 39 36 34 31 30 30 28 27 27 27 25 25 29 40 40 38 39 33 34 30 24 24 19 27 30 18
145 139 135 129 135 153 170 179 180 178 175 178 182 189 201 189 190 173 150 158 143 138 119 104 113 112 109 110 109 109 105 92 86 88 87 87 87 85 84 84 84 81 82 79 73 71 69 66 60 57 53 49 47 44 44 42 42 44 44 44 42 40 36 35 34 31 29 30 29 27 26 28 38 42 38 34 30 31 26 21 19 17 22 17 17
147 138 131 130 133 144 161 179 188 193 193 191 185 192 202 184 174 156 141 141 125 116 111 102 106 107 109 108 104 108 103 89 85 86 85 84 84 85 84 83 83 82 80 77 72 69 66 65 61 56 52 50 49 46 47 48 48 48 48 48 47 45 42 41 38 34 32 31 31 27 24 26 34 42 30 19 23 24 18 21 20 17 14 11 16
152 143 134 137 141 150 159 169 185 198 205 203 195 198 198 170 156 140 134 128 113 97 99 96 93 96 101 98 99 105 100 91 87 86 86 85 86 87 87 85 84 82 78 77 74 71 68 66 62 54 50 50 52 51 51 51 52 51 49 48 48 46 44 43 40 35 32 31 31 27 24 26 29 28 15 11 21 26 15 11 13 11 7 5 360
159 155 144 144 150 158 167 169 177 194 207 210 206 205 201 164 137 129 131 123 112 100 102 99 95 97 100 98 100 105 103 99 93 90 90 90 90 88 88 87 84 81 78 78 76 74 70 66 61 55 48 46 49 51 50 49 50 50 49 46 45 44 42 40 38 35 31 29 28 26 25 24 25 16 9 14 21 19 8 358 3 6 3 357 348
168 166 157 153 157 158 171 176 175 176 198 207 211 211 206 187 142 136 136 122 115 108 106 103 101 102 103 104 107 111 110 107 103 99 97 96 94 91 90 88 86 84 81 80 78 75 70 67 62 57 51 44 44 46 47 47 47 47 46 43 41 39 38 36 35 34 32 30 27 25 24 21 20 16 16 17 2 355 355 355 0 359 356 352 344
178 175 168 165 162 160 168 172 177 163 163 185 198 203 199 194 166 146 137 125 118 108 105 105 106 108 108 112 114 116 116 113 110 106 104 100 98 95 91 89 89 87 85 82 80 77 72 69 65 59 55 47 43 42 43 43 43 42 39 38 36 33 32 30 30 30 29 27 25 22 22 21 15 14 15 1 353 356 0 1 1 355 354 350 341
188 185 178 176 172 165 169 174 177 168 160 161 174 184 183 179 163 150 141 129 120 110 109 111 113 115 115 118 120 122 119 115 112 110 109 105 101 97 94 91 90 88 86 84 81 78 75 71 67 60 54 48 42 39 37 37 36 35 33 32 30 27 26 25 23 23 23 22 20 16 16 18 14 9 357 350 353 1 4 3 357 350 347 342 337
191 191 187 184 181 178 175 179 180 174 170 164 167 173 170 166 157 151 145 134 126 119 116 118 121 122 123 124 125 126 122 118 115 115 112 106 103 98 96 92 89 89 85 82 78 76 73 68 63 57 50 44 39 33 30 30 29 27 26 25 23 22 20 20 19 18 18 16 14 12 9 10 11 4 349 349 349 343 353 1 353 345 339 334 333
192 193 193 192 189 188 185 184 185 179 174 171 169 168 164 158 152 149 143 137 131 124 121 123 127 128 129 131 132 132 128 125 122 120 116 108 104 98 96 92 86 85 82 79 74 70 67 62 56 49 42 35 31 27 22 19 19 19 17 16 15 15 14 14 14 13 12 11 9 7 5 3 2 1 356 351 344 337 341 350 348 345 342 336 334
196 197 197 197 195 194 195 193 189 185 179 174 169 166 163 158 153 149 143 139 134 127 126 126 129 132 134 138 138 140 136 134 131 127 122 114 108 99 95 91 86 79 76 73 68 63 57 53 46 38 30 24 22 19 15 11 8 7 6 5 4 4 5 6 6 6 5 4 3 1 360 358 356 358 357 349 344 335 330 338 344 344 343 341 344
200 200 201 201 201 200 200 200 197 193 186 180 175 171 168 165 161 156 150 144 137 129 129 130 133 135 139 147 149 149 146 143 139 134 130 124 117 106 97 88 80 72 64 63 59 52 44 38 30 21 15 11 9 7 5 2 358 356 355 353 352 352 353 355 356 357 357 356 356 355 354 353 351 352 350 344 341 333 325 331 340 341 339 339 343
201 202 204 205 207 206 204 204 205 203 197 192 187 184 181 179 175 168 161 155 150 140 138 139 139 143 150 159 162 161 158 153 151 145 140 133 127 119 109 89 73 59 46 42 35 27 20 13 8 2 359 355 354 354 352 351 350 347 345 343 343 343 343 343 344 345 347 347 347 348 348 347 346 346 346 344 338 333 326 327 336 336 335 335 329
204 205 206 207 210 210 209 208 208 209 207 203 199 198 197 195 192 187 181 175 172 164 160 160 158 163 166 171 177 187 192 181 177 166 159 152 142 138 129 91 34 2 356 359 356 353 349 347 344 342 342 341 339 338 338 337 337 336 335 335 335 335 335 335 335 337 337 338 339 339 340 340 340 339 338 341 336 333 329 324 330 331 327 328 320
209 210 209 210 211 212 214 213 212 212 213 212 209 207 207 207 206 205 205 205 205 200 196 194 196 199 192 197 204 212 222 225 235 227 208 195 186 196 209 290 311 309 314 322 329 329 327 324 321 322 321 322 323 320 320 321 322 325 325 326 326 327 327 327 328 329 329 329 330 330 330 330 331 331 330 333 332 331 330 325 326 325 321 320 317
214 215 213 212 213 214 217 217 217 215 216 219 218 216 215 216 217 217 217 219 224 225 226 224 223 227 226 230 237 240 245 249 255 256 250 242 242 245 251 274 288 295 303 306 308 309 306 306 306 306 304 305 307 306 309 312 314 315 315 316 317 317 318 320 321 321 321 321 322 322 321 321 321 323 322 322 323 325 325 323 324 321 317 317 314
216 216 216 216 215 217 219 220 221 218 219 221 224 224 222 223 225 225 226 228 230 232 234 236 236 236 238 242 248 253 258 259 260 262 264 266 262 256 259 266 273 283 290 291 292 291 290 294 296 297 297 300 302 303 306 307 308 308 309 310 308 308 310 312 312 313 314 314 315 315 315 315 316 316 316 315 316 318 318 318 320 318 315 313 311
217 216 218 219 218 219 220 222 223 222 221 221 224 226 227 227 229 230 232 234 234 235 238 241 243 243 242 244 248 253 257 259 259 262 264 268 268 265 267 270 274 277 279 283 284 285 285 288 291 294 297 301 304 303 302 300 298 299 300 302 302 303 306 307 306 307 309 311 312 312 312 312 312 313 312 312 312 313 314 314 315 316 315 312 310
219 219 219 220 222 222 222 223 224 224 223 223 223 225 228 229 231 233 233 235 235 236 239 242 246 247 248 247 248 251 255 259 262 265 265 265 267 265 265 268 273 276 276 279 279 281 282 285 289 292 295 298 298 296 294 293 294 293 290 291 295 298 303 304 304 306 308 312 313 313 315 314 314 313 311 311 311 312 312 312 313 314 314 310 307
222 222 222 223 224 225 225 224 225 226 225 225 225 225 228 229 230 232 232 234 234 236 240 243 247 249 249 249 250 252 254 258 262 265 266 265 265 264 264 265 267 271 273 274 275 278 280 281 285 288 290 291 293 295 293 292 295 297 298 300 302 302 304 302 303 305 306 309 310 312 316 317 317 315 313 312 311 310 309 311 311 310 310 308 305
226 226 226 227 228 228 228 228 228 228 228 228 228 229 229 230 230 231 233 235 235 237 239 243 247 247 247 247 248 251 254 258 260 263 264 263 263 262 263 263 263 267 270 272 273 275 276 276 278 281 283 286 292 296 298 302 310 316 316 317 317 315 313 313 312 309 306 304 303 307 312 313 313 311 309 308 306 305 305 306 305 305 306 304 303
230 229 229 230 230 231 231 232 231 231 232 232 231 231 231 232 232 231 233 236 238 239 239 241 244 245 247 248 248 251 254 258 260 262 264 263 263 262 263 263 263 264 266 269 271 271 273 274 275 277 278 282 290 297 305 314 323 328 329 325 325 326 324 324 323 318 312 305 299 302 306 309 309 307 304 302 301 301 300 300 300 301 302 301 301
231 229 230 232 233 233 233 235 235 234 235 235 236 235 235 236 235 235 236 238 241 240 238 239 241 246 250 251 252 254 257 259 261 262 263 263 263 264 265 265 264 264 264 265 267 270 273 276 280 285 287 291 298 307 315 318 318 322 327 327 329 327 324 323 322 321 316 310 304 303 307 310 310 309 308 308 305 302 300 300 301 302 301 301 301
232 231 231 233 234 235 235 236 237 237 236 238 240 239 239 239 239 239 239 240 242 241 240 240 241 245 249 251 252 254 258 262 264 265 266 267 268 269 271 271 271 269 269 270 273 279 284 288 293 295 297 301 303 305 310 311 310 314 319 323 324 321 319 319 318 317 315 312 311 310 311 312 312 314 314 313 310 305 302 303 306 308 307 304 303
235 235 234 234 235 235 237 237 238 238 238 239 240 240 240 239 239 240 240 241 242 241 241 242 243 245 248 251 251 253 258 262 267 270 271 272 273 276 277 278 280 279 277 277 278 282 284 289 295 296 297 298 296 298 305 308 308 308 310 313 316 315 315 317 320 321 319 319 320 318 316 315 317 322 320 314 309 306 306 307 310 313 312 308 303
238 237 237 237 237 237 238 239 240 239 239 239 239 240 240 239 239 238 238 239 240 241 241 242 244 245 247 249 250 253 256 261 268 271 273 273 273 277 278 278 282 285 286 285 286 286 281 283 287 285 288 293 297 310 317 312 307 306 310 314 314 314 316 323 329 331 331 331 331 326 321 318 322 328 329 323 316 311 309 308 307 308 307 304 301
241 239 238 238 238 238 239 240 240 240 240 239 239 240 240 239 238 236 236 236 236 238 239 242 243 245 246 247 249 252 256 263 269 274 277 276 277 282 282 279 280 287 292 295 304 307 299 300 300 291 292 300 313 335 331 313 310 316 321 322 316 316 322 326 330 335 338 336 336 335 329 323 323 326 327 323 318 314 311 309 308 306 304 303 303
242 241 240 238 238 237 238 238 238 239 240 239 238 237 237 237 236 236 236 235 235 236 238 241 243 244 246 248 250 254 260 266 269 275 279 280 283 288 289 289 289 290 291 293 307 316 318 328 324 310 310 312 315 332 332 318 318 327 328 320 312 315 321 323 325 333 336 334 336 337 331 327 327 327 327 328 326 323 322 321 319 316 316 316 316
241 240 239 237 236 235 235 236 236 237 238 238 237 235 235 234 235 235 236 238 239 240 241 242 244 246 248 251 253 256 260 263 266 272 277 281 286 288 288 290 291 293 294 295 305 308 309 323 325 319 321 312 306 316 326 320 318 323 323 315 312 316 321 323 324 330 331 332 333 330 328 330 332 334 337 341 341 341 344 343 341 339 338 338 339
242 240 239 237 236 235 234 235 236 236 237 238 237 236 235 235 236 238 240 244 245 246 248 249 252 255 256 257 256 256 258 260 262 264 268 273 279 283 283 283 283 284 289 292 292 286 288 303 311 313 324 320 312 315 320 312 309 315 317 314 316 321 328 330 327 329 332 332 332 332 335 337 339 342 348 352 352 355 359 357 356 355 354 352 352
244 242 241 239 237 235 234 234 234 235 236 237 236 236 237 238 242 246 249 252 254 254 256 258 260 259 259 259 257 257 256 256 257 257 259 264 266 269 271 271 274 274 276 279 274 272 280 290 293 293 301 312 316 310 308 308 307 312 316 316 318 322 330 332 327 331 334 334 337 340 342 344 346 351 356 357 355 358 360 358 357 357 355 355 355
243 242 240 238 237 236 235 234 234 235 235 235 235 236 238 241 245 250 253 256 256 256 255 255 255 254 256 256 256 256 254 253 254 251 252 256 256 258 266 270 268 265 265 272 280 282 278 275 276 279 280 283 296 299 297 302 306 311 317 317 316 319 325 324 323 330 335 336 341 345 345 347 351 354 357 357 354 355 355 355 355 354 354 354 354
244 243 240 238 238 237 237 236 236 236 236 235 236 236 237 239 242 246 248 250 250 249 248 248 248 249 251 253 255 257 256 252 250 247 249 251 250 253 264 268 267 267 271 274 282 286 277 266 270 280 280 277 284 289 288 291 297 301 306 309 311 316 317 316 319 323 326 332 342 349 349 348 349 351 354 353 351 351 351 352 353 351 352 353 353
247 246 244 242 241 240 239 239 238 238 238 237 237 236 237 238 240 242 243 244 245 244 244 246 247 248 250 253 258 261 258 253 248 249 258 259 256 261 261 262 267 273 278 270 263 270 270 267 270 271 275 279 279 280 283 289 295 296 292 293 300 305 308 312 315 314 317 329 344 350 349 347 348 349 351 350 348 349 348 348 349 351 353 354 354
250 250 248 245 243 241 240 240 240 240 239 239 238 237 237 238 240 242 244 245 246 247 248 251 252 253 255 258 261 261 256 254 247 241 252 259 257 261 263 264 265 265 269 266 259 263 264 267 270 262 263 276 276 277 283 287 290 289 283 285 290 294 301 308 312 313 314 323 337 346 346 347 350 350 349 350 348 346 345 346 348 350 353 355 354
253 251 251 249 247 243 241 241 241 241 240 240 240 239 238 239 240 242 245 246 247 250 253 256 257 258 258 258 258 258 253 252 249 236 239 250 247 249 255 256 255 256 260 260 256 257 258 265 272 263 258 269 275 277 282 285 287 285 284 287 291 297 303 307 311 313 313 317 330 342 344 344 347 349 348 348 348 346 344 346 349 350 352 353 353
252 249 250 251 251 247 244 242 241 241 240 241 242 242 241 241 242 244 246 247 249 251 253 256 258 257 256 255 253 254 252 249 250 243 239 242 240 242 248 249 249 249 251 253 252 253 255 261 264 256 255 265 275 280 282 288 294 290 288 293 301 310 316 317 317 320 323 324 331 339 342 340 341 345 347 345 346 346 345 347 351 351 351 352 352
249 249 249 249 248 248 245 243 241 241 241 242 242 243 243 243 244 245 246 248 248 250 252 254 256 256 254 253 250 249 250 248 249 249 246 246 244 242 239 237 241 244 247 252 254 254 254 253 251 252 263 271 278 283 284 290 297 298 305 316 324 329 330 331 329 331 336 335 332 335 340 338 336 339 342 342 343 344 344 348 353 353 351 351 350
248 246 248 248 246 246 245 244 241 241 242 242 243 244 244 244 245 246 246 247 247 248 250 252 254 255 253 252 251 249 249 249 249 249 249 252 254 251 243 239 244 249 253 256 256 256 253 251 252 260 271 274 272 277 282 288 297 319 345 348 342 340 339 337 337 338 340 337 333 333 337 335 332 335 337 338 339 340 343 348 353 354 351 350 348